Alton, IL

12:20 PM CDT on June 28, 2017 (GMT -0500)
Saint Louis Regional

Weather History for KALN - July, 2013

Change the Weather History Date:

Tuesday, July 2, 2013

  Actual Average Record
Temperature  
Mean Temperature 64 °F -  
Max Temperature 68 °F 85 °F 99 °F (2012)
Min Temperature 60 °F 68 °F 55 °F (2001)
Degree Days  
Heating Degree Days 1    
Growing Degree Days 14 (Base 50)    
Moisture  
Dew Point 57 °F    
Average Humidity 77    
Maximum Humidity 94    
Minimum Humidity 58    
Precipitation  
Precipitation 0.01 in - - ()
Sea Level Pressure  
Sea Level Pressure 30.00 in    
Wind  
Wind Speed 6 mph (North)    
Max Wind Speed 18 mph    
Max Gust Speed 16 mph    
Visibility 9 miles    
Events Rain    
Averages and records for this station are not official NWS values.
T = Trace of Precipitation, MM = Missing Value Source: NWS Daily Summary

Daily Weather History Graph

Daily Weather History Graph

Search for Another Location

Airport or City:

Trip Planner

Search our weather history database for the weather conditions in past years. The results will help you decide how hot, cold, wet, or windy it might be!

Date:

Astronomy

Jul. 02, 2013 Rise Set
Actual Time 5:39 AM CDT 8:29 PM CDT
Civil Twilight 5:07 AM CDT 9:01 PM CDT
Nautical Twilight 4:27 AM CDT 9:41 PM CDT
Astronomical Twilight 3:41 AM CDT 10:26 PM CDT
Moon 1:40 AM CDT (7/2) 3:44 PM CDT (7/2)
Length of Visible Light 15h 53m
Length of Day
14h 50m
Waning Crescent, 26% of the Moon is Illuminated
Jul 2
Waning Crescent
Jul 8
New
Jul 15
First Quarter
Jul 22
Full
Jul 29
Last Quarter

Hourly Weather History & Observations

Time (CDT) Temp. Dew Point Humidity Pressure Visibility Wind Dir Wind Speed Gust Speed Precip Events Conditions
12:15 AM 67.6 °F 57.6 °F 70% 29.99 in 10.0 mi Calm Calm - N/A   Overcast
12:35 AM 68.0 °F 59.0 °F 73% 29.98 in 10.0 mi NE 4.6 mph - N/A   Overcast
12:55 AM 68.0 °F 59.4 °F 74% 29.98 in 10.0 mi NNE 3.5 mph - 0.01 in   Overcast
1:15 AM 67.6 °F 59.4 °F 75% 29.98 in 10.0 mi North 8.1 mph - N/A   Overcast
1:35 AM 67.6 °F 58.8 °F 73% 29.97 in 10.0 mi North 5.8 mph - N/A   Overcast
1:55 AM 67.6 °F 58.1 °F 71% 29.97 in 10.0 mi North 5.8 mph - N/A   Overcast
2:15 AM 67.6 °F 56.1 °F 67% 29.96 in 10.0 mi North 11.5 mph 16.1 mph N/A   Overcast
2:35 AM 67.1 °F 54.7 °F 64% 29.96 in 10.0 mi North 6.9 mph - N/A   Overcast
2:55 AM 67.1 °F 54.1 °F 63% 29.96 in 10.0 mi North 8.1 mph - N/A   Mostly Cloudy
3:15 AM 67.1 °F 53.8 °F 62% 29.96 in 10.0 mi North 6.9 mph - N/A   Overcast
3:35 AM 67.1 °F 53.4 °F 61% 29.96 in 10.0 mi North 9.2 mph - N/A   Overcast
3:55 AM 67.1 °F 52.0 °F 58% 29.96 in 10.0 mi North 6.9 mph - N/A   Overcast
4:15 AM 66.4 °F 52.3 °F 61% 29.96 in 10.0 mi North 5.8 mph - N/A   Overcast
4:35 AM 66.2 °F 52.7 °F 62% 29.96 in 10.0 mi North 4.6 mph - N/A   Overcast
4:55 AM 66.2 °F 52.9 °F 62% 29.97 in 10.0 mi North 6.9 mph - N/A   Light Drizzle
5:15 AM 66.2 °F 53.1 °F 63% 29.97 in 10.0 mi North 9.2 mph - N/A   Overcast
5:35 AM 65.8 °F 53.6 °F 65% 29.98 in 10.0 mi North 6.9 mph - N/A   Light Drizzle
5:55 AM 65.3 °F 54.1 °F 67% 29.98 in 10.0 mi North 6.9 mph - N/A   Drizzle
6:15 AM 64.4 °F 54.9 °F 71% 29.99 in 10.0 mi NNE 4.6 mph - N/A Rain Light Rain
6:35 AM 63.1 °F 55.6 °F 76% 29.99 in 7.0 mi North 5.8 mph - N/A Rain Light Rain
6:50 AM 62.6 °F 55.4 °F 77% 29.99 in 7.0 mi North 11.5 mph - N/A Rain Light Rain
6:55 AM 62.6 °F 56.5 °F 80% 29.99 in 7.0 mi Calm Calm - N/A Rain Light Rain
7:50 AM 62.6 °F 57.2 °F 82% 30.00 in 5.0 mi North 9.2 mph - N/A Rain Light Rain
9:50 AM 60.8 °F 57.2 °F 88% 30.01 in 5.0 mi NNW 13.8 mph - N/A Rain Light Rain
10:50 AM 60.8 °F 59.0 °F 94% 30.02 in 5.0 mi North 11.5 mph - N/A Rain Light Rain
11:50 AM 60.8 °F 59.0 °F 94% 30.03 in 3.0 mi North 13.8 mph - N/A Rain Light Rain
12:50 PM 60.8 °F 59.0 °F 94% 30.03 in 6.0 mi NNW 13.8 mph - N/A Rain Light Rain
1:50 PM 62.6 °F 59.0 °F 88% 30.03 in 6.0 mi North 13.8 mph - N/A Rain Light Rain
2:50 PM 64.4 °F 59.0 °F 83% 30.02 in 6.0 mi North 13.8 mph - N/A Rain Light Rain
3:50 PM 64.4 °F 59.0 °F 83% 30.02 in 6.0 mi North 18.4 mph - N/A Rain Light Rain
7:55 PM 62.6 °F 59.0 °F 88% 30.02 in 10.0 mi WNW 4.6 mph - N/A   Overcast
10:15 PM 62.8 °F 60.1 °F 91% 30.05 in 10.0 mi Calm Calm - N/A   Mostly Cloudy
10:35 PM 62.8 °F 60.1 °F 91% 30.05 in 10.0 mi WNW 3.5 mph - N/A   Overcast
10:55 PM 62.8 °F 60.1 °F 91% 30.05 in 10.0 mi WNW 4.6 mph - N/A   Overcast
11:15 PM 63.0 °F 60.3 °F 91% 30.05 in 10.0 mi WNW 4.6 mph - N/A   Overcast
11:35 PM 62.6 °F 59.9 °F 91% 30.05 in 10.0 mi Calm Calm - N/A   Mostly Cloudy
11:55 PM 62.6 °F 59.9 °F 91% 30.05 in 7.0 mi Calm Calm - N/A   Mostly Cloudy